IOS772 EGHQ-LFRT

Flight info

Callsign IOS772
Flight time N/A
Altitude 9000
Route DCT ABBEW N90 SKESO A25 LERAK DCT
Aircraft DHC6/L-SDRYGFB/SCB1

Departure

Time 2026-04-21 15:35
Airport Cornwall Airport Newquay (EGHQ)

Arrival

Time N/A
Airport Saint-Brieuc-Armor Airport (LFRT)
Time Latitude Longitude Altitude Speed Heading
2026-04-21 15:05 50.44626 -5.00289 333 ft 0 kts 76°
2026-04-21 15:31 50.44626 -5.00290 333 ft 0 kts 76°
2026-04-21 15:31 50.44621 -5.00329 332 ft 9 kts 76°
2026-04-21 15:32 50.44611 -5.00411 330 ft 0 kts 131°
2026-04-21 15:32 50.44610 -5.00410 330 ft 0 kts 128°
2026-04-21 15:32 50.44610 -5.00408 330 ft 0 kts 125°
2026-04-21 15:33 50.44595 -5.00369 331 ft 13 kts 120°
2026-04-21 15:33 50.44533 -5.00201 335 ft 18 kts 121°
2026-04-21 15:33 50.44467 -5.00091 337 ft 12 kts 193°
2026-04-21 15:33 50.44423 -5.00223 335 ft 18 kts 247°
2026-04-21 15:34 50.44362 -5.00284 335 ft 5 kts 124°
2026-04-21 15:34 50.44340 -5.00227 336 ft 13 kts 119°
2026-04-21 15:34 50.44228 -4.99933 339 ft 43 kts 121°
2026-04-21 15:34 50.44053 -4.99468 345 ft 54 kts 120°
2026-04-21 15:35 50.43850 -4.98932 354 ft 59 kts 121°
2026-04-21 15:35 50.43605 -4.98276 388 ft 85 kts 120°
2026-04-21 15:35 50.43288 -4.97506 801 ft 85 kts 121°
2026-04-21 15:35 50.42942 -4.96695 1264 ft 88 kts 120°
2026-04-21 15:36 50.42663 -4.95853 1699 ft 87 kts 98°
2026-04-21 15:36 50.42763 -4.94918 2135 ft 86 kts 87°
2026-04-21 15:36 50.42817 -4.94020 2618 ft 79 kts 85°
2026-04-21 15:36 50.42872 -4.93178 2952 ft 79 kts 85°
2026-04-21 15:37 50.42928 -4.92325 3369 ft 78 kts 85°
2026-04-21 15:37 50.42978 -4.91486 3717 ft 78 kts 86°
2026-04-21 15:37 50.43029 -4.90638 4063 ft 77 kts 86°
2026-04-21 15:37 50.43079 -4.89808 4410 ft 76 kts 86°
2026-04-21 15:38 50.43127 -4.88979 4747 ft 77 kts 86°
2026-04-21 15:38 50.43180 -4.88136 5084 ft 78 kts 83°
2026-04-21 15:38 50.43236 -4.87277 5393 ft 82 kts 86°
2026-04-21 15:38 50.43288 -4.86368 5737 ft 84 kts 86°
2026-04-21 15:39 50.43339 -4.85452 6090 ft 87 kts 85°
2026-04-21 15:39 50.43391 -4.84469 6399 ft 97 kts 86°
2026-04-21 15:39 50.43450 -4.83367 6660 ft 104 kts 87°
2026-04-21 15:39 50.43514 -4.82221 6923 ft 107 kts 86°
2026-04-21 15:40 50.43580 -4.81046 7186 ft 109 kts 86°
2026-04-21 15:40 50.43623 -4.80265 7357 ft 108 kts 86°
2026-04-21 15:40 50.43691 -4.79114 7610 ft 104 kts 86°
2026-04-21 15:40 50.43754 -4.77999 7861 ft 101 kts 85°
2026-04-21 15:41 50.43816 -4.76902 8110 ft 102 kts 86°
2026-04-21 15:41 50.43878 -4.75801 8359 ft 102 kts 86°
2026-04-21 15:41 50.43940 -4.74695 8603 ft 101 kts 86°
2026-04-21 15:41 50.44000 -4.73601 8849 ft 101 kts 86°
2026-04-21 15:42 50.44060 -4.72510 9091 ft 100 kts 86°
2026-04-21 15:42 50.44123 -4.71367 9178 ft 114 kts 86°
2026-04-21 15:42 50.44193 -4.70065 9183 ft 129 kts 86°
2026-04-21 15:42 50.44274 -4.68592 9189 ft 138 kts 86°
2026-04-21 15:43 50.44360 -4.67057 9189 ft 144 kts 85°
2026-04-21 15:43 50.44445 -4.65493 9190 ft 148 kts 86°
2026-04-21 15:43 50.44535 -4.63872 9187 ft 150 kts 86°
2026-04-21 15:43 50.44624 -4.62255 9186 ft 144 kts 86°
2026-04-21 15:44 50.44707 -4.60734 9183 ft 136 kts 86°
2026-04-21 15:44 50.44786 -4.59280 9179 ft 132 kts 85°
2026-04-21 15:44 50.44865 -4.57868 9179 ft 128 kts 86°
2026-04-21 15:44 50.44940 -4.56483 9177 ft 126 kts 85°
2026-04-21 15:45 50.45013 -4.55118 9174 ft 125 kts 86°
2026-04-21 15:45 50.45087 -4.53762 9171 ft 124 kts 86°
2026-04-21 15:45 50.45159 -4.52412 9169 ft 124 kts 86°
2026-04-21 15:45 50.45233 -4.51055 9168 ft 126 kts 86°
2026-04-21 15:46 50.45307 -4.49675 9170 ft 128 kts 85°
2026-04-21 15:46 50.45380 -4.48283 9170 ft 128 kts 86°
2026-04-21 15:46 50.45455 -4.46904 9170 ft 128 kts 85°
2026-04-21 15:46 50.45528 -4.45530 9172 ft 128 kts 86°
2026-04-21 15:47 50.45602 -4.44114 9172 ft 129 kts 85°
2026-04-21 15:47 50.45676 -4.42722 9173 ft 128 kts 86°
2026-04-21 15:47 50.45749 -4.41332 9174 ft 128 kts 85°
2026-04-21 15:47 50.45823 -4.39937 9175 ft 128 kts 85°
2026-04-21 15:48 50.45897 -4.38548 9179 ft 127 kts 86°
2026-04-21 15:48 50.45970 -4.37165 9178 ft 127 kts 86°
2026-04-21 15:48 50.46042 -4.35779 9178 ft 127 kts 85°
2026-04-21 15:48 50.46028 -4.34408 9177 ft 126 kts 105°
2026-04-21 15:49 50.45506 -4.33291 9178 ft 128 kts 128°
2026-04-21 15:49 50.44917 -4.32229 9178 ft 129 kts 125°
2026-04-21 15:49 50.44371 -4.31161 9178 ft 129 kts 123°
2026-04-21 15:49 50.43815 -4.30025 9180 ft 131 kts 122°
2026-04-21 15:50 50.43268 -4.28879 9182 ft 132 kts 122°
2026-04-21 15:50 50.42718 -4.27724 9174 ft 133 kts 122°
2026-04-21 15:50 50.42168 -4.26569 9171 ft 131 kts 122°
2026-04-21 15:50 50.41624 -4.25419 9173 ft 132 kts 122°
2026-04-21 15:51 50.41077 -4.24265 9172 ft 132 kts 122°
2026-04-21 15:51 50.40530 -4.23109 9171 ft 132 kts 122°
2026-04-21 15:51 50.39987 -4.21965 9171 ft 131 kts 122°
2026-04-21 15:51 50.39455 -4.20840 9171 ft 130 kts 122°
2026-04-21 15:52 50.38903 -4.19680 9172 ft 130 kts 122°
2026-04-21 15:52 50.38363 -4.18541 9172 ft 130 kts 122°
2026-04-21 15:52 50.37829 -4.17415 9170 ft 131 kts 122°
2026-04-21 15:52 50.37282 -4.16268 9169 ft 132 kts 122°
2026-04-21 15:53 50.36736 -4.15116 9168 ft 132 kts 122°
2026-04-21 15:53 50.36187 -4.13962 9168 ft 132 kts 122°
2026-04-21 15:53 50.35647 -4.12828 9166 ft 132 kts 122°
2026-04-21 15:53 50.35100 -4.11675 9166 ft 132 kts 122°
2026-04-21 15:54 50.34552 -4.10523 9166 ft 132 kts 122°
2026-04-21 15:54 50.33997 -4.09367 9166 ft 132 kts 122°
2026-04-21 15:54 50.33459 -4.08236 9166 ft 132 kts 122°
2026-04-21 15:54 50.32900 -4.07064 9166 ft 132 kts 122°
2026-04-21 15:55 50.32346 -4.05903 9167 ft 132 kts 122°
2026-04-21 15:55 50.31803 -4.04764 9164 ft 133 kts 122°
2026-04-21 15:55 50.31257 -4.03617 9167 ft 133 kts 122°
2026-04-21 15:55 50.30695 -4.02443 9166 ft 133 kts 122°
2026-04-21 15:56 50.30140 -4.01279 9167 ft 134 kts 122°
2026-04-21 15:56 50.29584 -4.00120 9169 ft 133 kts 122°
2026-04-21 15:56 50.29029 -3.98959 9168 ft 132 kts 122°
2026-04-21 15:56 50.28483 -3.97817 9166 ft 131 kts 122°
2026-04-21 15:57 50.27943 -3.96690 9168 ft 131 kts 122°
2026-04-21 15:57 50.27395 -3.95544 9167 ft 131 kts 122°
2026-04-21 15:57 50.26846 -3.94399 9169 ft 131 kts 122°
2026-04-21 15:57 50.26298 -3.93255 9168 ft 132 kts 122°
2026-04-21 15:58 50.25758 -3.92129 9168 ft 132 kts 122°
2026-04-21 15:58 50.25200 -3.90965 9168 ft 131 kts 122°
2026-04-21 15:58 50.24651 -3.89822 9167 ft 131 kts 122°
2026-04-21 15:58 50.24103 -3.88675 9167 ft 132 kts 122°
2026-04-21 15:59 50.23551 -3.87529 9167 ft 132 kts 122°
2026-04-21 15:59 50.23000 -3.86384 9167 ft 132 kts 122°
2026-04-21 15:59 50.22452 -3.85244 9169 ft 131 kts 122°
2026-04-21 15:59 50.21901 -3.84102 9171 ft 131 kts 122°
2026-04-21 16:00 50.21355 -3.82965 9172 ft 131 kts 122°
2026-04-21 16:00 50.20814 -3.81841 9174 ft 131 kts 122°
2026-04-21 16:00 50.20264 -3.80699 9174 ft 131 kts 122°
2026-04-21 16:00 50.19716 -3.79563 9175 ft 131 kts 122°
2026-04-21 16:01 50.19169 -3.78428 9176 ft 131 kts 122°
2026-04-21 16:01 50.18621 -3.77292 9176 ft 131 kts 122°
2026-04-21 16:01 50.18072 -3.76151 9175 ft 131 kts 122°
2026-04-21 16:01 50.17520 -3.75007 9174 ft 132 kts 122°
2026-04-21 16:02 50.16968 -3.73866 9172 ft 132 kts 122°
2026-04-21 16:02 50.16416 -3.72723 9170 ft 131 kts 122°
2026-04-21 16:02 50.15883 -3.71619 9170 ft 131 kts 122°
2026-04-21 16:02 50.15322 -3.70462 9169 ft 131 kts 122°
2026-04-21 16:03 50.14766 -3.69312 9169 ft 131 kts 122°
2026-04-21 16:03 50.14215 -3.68171 9169 ft 132 kts 122°
2026-04-21 16:03 50.13668 -3.67042 9169 ft 132 kts 122°
2026-04-21 16:03 50.13116 -3.65902 9168 ft 131 kts 122°
2026-04-21 16:04 50.12568 -3.64769 9167 ft 130 kts 122°
2026-04-21 16:04 50.12045 -3.63688 9169 ft 131 kts 122°
2026-04-21 16:04 50.11474 -3.62514 9169 ft 131 kts 122°
2026-04-21 16:04 50.10927 -3.61384 9168 ft 131 kts 122°
2026-04-21 16:05 50.10378 -3.60252 9168 ft 130 kts 122°
2026-04-21 16:05 50.09830 -3.59125 9168 ft 131 kts 122°
2026-04-21 16:05 50.09284 -3.58004 9168 ft 131 kts 122°
2026-04-21 16:05 50.08745 -3.56892 9168 ft 131 kts 122°
2026-04-21 16:06 50.08183 -3.55740 9168 ft 131 kts 122°
2026-04-21 16:06 50.07633 -3.54606 9168 ft 131 kts 122°
2026-04-21 16:06 50.07083 -3.53479 9167 ft 131 kts 122°
2026-04-21 16:06 50.06531 -3.52344 9168 ft 131 kts 122°
2026-04-21 16:07 50.05980 -3.51212 9168 ft 131 kts 122°
2026-04-21 16:07 50.05429 -3.50083 9168 ft 131 kts 122°
2026-04-21 16:07 50.04879 -3.48954 9169 ft 131 kts 122°
2026-04-21 16:07 50.04334 -3.47830 9172 ft 130 kts 122°
2026-04-21 16:08 50.03237 -3.45585 9172 ft 130 kts 122°
2026-04-21 16:08 50.02692 -3.44469 9173 ft 130 kts 122°
2026-04-21 16:08 50.02144 -3.43348 9174 ft 130 kts 122°
2026-04-21 16:09 50.01596 -3.42228 9176 ft 130 kts 122°
2026-04-21 16:09 50.01047 -3.41106 9176 ft 130 kts 122°
2026-04-21 16:09 50.00502 -3.39986 9175 ft 130 kts 122°
2026-04-21 16:09 49.99957 -3.38877 9174 ft 130 kts 122°
2026-04-21 16:10 49.99408 -3.37754 9172 ft 131 kts 123°
2026-04-21 16:10 49.98859 -3.36633 9171 ft 131 kts 122°
2026-04-21 16:10 49.98304 -3.35501 9169 ft 131 kts 122°
2026-04-21 16:10 49.97751 -3.34373 9168 ft 131 kts 123°
2026-04-21 16:11 49.97196 -3.33240 9167 ft 131 kts 122°
2026-04-21 16:11 49.96640 -3.32108 9166 ft 132 kts 122°
2026-04-21 16:11 49.96085 -3.30977 9166 ft 132 kts 123°
2026-04-21 16:11 49.95527 -3.29838 9165 ft 132 kts 123°
2026-04-21 16:12 49.95158 -3.29087 9166 ft 132 kts 122°
2026-04-21 16:12 49.94419 -3.27583 9165 ft 132 kts 122°
2026-04-21 16:12 49.93865 -3.26456 9165 ft 131 kts 123°
2026-04-21 16:12 49.93312 -3.25330 9166 ft 131 kts 122°
2026-04-21 16:13 49.92758 -3.24206 9166 ft 131 kts 123°
2026-04-21 16:13 49.92206 -3.23085 9166 ft 131 kts 123°
2026-04-21 16:13 49.91653 -3.21961 9166 ft 131 kts 122°
2026-04-21 16:13 49.91097 -3.20832 9166 ft 132 kts 122°
2026-04-21 16:14 49.90539 -3.19701 9168 ft 132 kts 123°
2026-04-21 16:14 49.89985 -3.18574 9168 ft 132 kts 123°
2026-04-21 16:14 49.89428 -3.17446 9166 ft 131 kts 122°
2026-04-21 16:14 49.88871 -3.16321 9166 ft 132 kts 123°
2026-04-21 16:15 49.88312 -3.15190 9166 ft 132 kts 123°
2026-04-21 16:15 49.87768 -3.14087 9165 ft 132 kts 123°
2026-04-21 16:15 49.87192 -3.12927 9166 ft 132 kts 123°
2026-04-21 16:15 49.86634 -3.11794 9165 ft 132 kts 123°
2026-04-21 16:16 49.86091 -3.10693 9166 ft 132 kts 123°
2026-04-21 16:16 49.85478 -3.09617 9162 ft 134 kts 140°
2026-04-21 16:16 49.84559 -3.09217 9158 ft 141 kts 166°
2026-04-21 16:16 49.83597 -3.08962 9162 ft 141 kts 161°
2026-04-21 16:17 49.82635 -3.08646 9163 ft 141 kts 161°
2026-04-21 16:17 49.81679 -3.08317 9164 ft 141 kts 161°
2026-04-21 16:17 49.80720 -3.07981 9166 ft 141 kts 160°
2026-04-21 16:17 49.79762 -3.07644 9168 ft 141 kts 160°
2026-04-21 16:18 49.78806 -3.07305 9168 ft 141 kts 160°
2026-04-21 16:18 49.77847 -3.06967 9167 ft 141 kts 160°
2026-04-21 16:18 49.76893 -3.06623 9166 ft 141 kts 160°
2026-04-21 16:18 49.75947 -3.06288 9167 ft 141 kts 160°
2026-04-21 16:19 49.74990 -3.05948 9167 ft 141 kts 160°
2026-04-21 16:19 49.74034 -3.05609 9168 ft 141 kts 160°
2026-04-21 16:19 49.73072 -3.05271 9155 ft 142 kts 160°
2026-04-21 16:19 49.72106 -3.04931 9153 ft 142 kts 160°
2026-04-21 16:20 49.71145 -3.04591 9152 ft 141 kts 160°
2026-04-21 16:20 49.70184 -3.04254 9151 ft 141 kts 160°
2026-04-21 16:20 49.69225 -3.03916 9148 ft 142 kts 160°
2026-04-21 16:20 49.68265 -3.03577 9149 ft 142 kts 160°
2026-04-21 16:21 49.67280 -3.03223 9152 ft 149 kts 161°
2026-04-21 16:21 49.66257 -3.02863 9159 ft 156 kts 161°
2026-04-21 16:21 49.65185 -3.02489 9167 ft 160 kts 161°
2026-04-21 16:21 49.64088 -3.02104 9164 ft 163 kts 161°
2026-04-21 16:22 49.63352 -3.01847 9160 ft 164 kts 161°
2026-04-21 16:22 49.61856 -3.01322 9160 ft 165 kts 161°
2026-04-21 16:22 49.60751 -3.00933 9157 ft 166 kts 161°
2026-04-21 16:22 49.59601 -3.00531 9159 ft 166 kts 161°
2026-04-21 16:23 49.58469 -3.00133 9157 ft 167 kts 161°
2026-04-21 16:23 49.57337 -2.99737 9157 ft 167 kts 161°
2026-04-21 16:23 49.56199 -2.99339 9159 ft 167 kts 161°
2026-04-21 16:23 49.55083 -2.98948 9159 ft 167 kts 161°
2026-04-21 16:24 49.53952 -2.98552 9156 ft 167 kts 161°
2026-04-21 16:24 49.52821 -2.98158 9159 ft 167 kts 161°
2026-04-21 16:24 49.51704 -2.97766 9158 ft 167 kts 161°
2026-04-21 16:24 49.50571 -2.97373 9156 ft 167 kts 162°
2026-04-21 16:25 49.49435 -2.96973 9156 ft 168 kts 162°
2026-04-21 16:25 49.48297 -2.96576 9154 ft 167 kts 162°
2026-04-21 16:25 49.47161 -2.96181 9158 ft 167 kts 162°
2026-04-21 16:25 49.46027 -2.95784 9158 ft 167 kts 162°
2026-04-21 16:26 49.44891 -2.95389 9157 ft 167 kts 162°
2026-04-21 16:26 49.43759 -2.94995 9156 ft 167 kts 162°
2026-04-21 16:26 49.42627 -2.94600 9157 ft 167 kts 162°
2026-04-21 16:26 49.41490 -2.94206 9157 ft 167 kts 162°
2026-04-21 16:27 49.40353 -2.93809 9147 ft 168 kts 162°
2026-04-21 16:27 49.39215 -2.93414 9147 ft 168 kts 162°
2026-04-21 16:27 49.38462 -2.93151 9145 ft 167 kts 162°
2026-04-21 16:27 49.36944 -2.92625 9147 ft 167 kts 161°
2026-04-21 16:28 49.35821 -2.92234 9147 ft 167 kts 162°
2026-04-21 16:28 49.35055 -2.91968 9147 ft 167 kts 162°
2026-04-21 16:28 49.33554 -2.91448 9145 ft 167 kts 162°
2026-04-21 16:28 49.32421 -2.91054 9145 ft 167 kts 162°
2026-04-21 16:29 49.31652 -2.90789 9146 ft 167 kts 162°
2026-04-21 16:29 49.30535 -2.90400 9146 ft 167 kts 162°
2026-04-21 16:29 49.29386 -2.90003 9146 ft 167 kts 162°
2026-04-21 16:29 49.28266 -2.89616 9146 ft 167 kts 162°
2026-04-21 16:30 49.27134 -2.89223 9147 ft 167 kts 162°
2026-04-21 16:30 49.25996 -2.88831 9146 ft 167 kts 162°
2026-04-21 16:30 49.24861 -2.88437 9147 ft 167 kts 162°
2026-04-21 16:30 49.23723 -2.88045 9147 ft 167 kts 162°
2026-04-21 16:31 49.22587 -2.87652 9145 ft 167 kts 162°
2026-04-21 16:31 49.21455 -2.87261 9141 ft 167 kts 162°
2026-04-21 16:31 49.20317 -2.86870 9138 ft 167 kts 162°
2026-04-21 16:31 49.19180 -2.86476 9138 ft 167 kts 162°
2026-04-21 16:32 49.18052 -2.86089 9138 ft 167 kts 162°
2026-04-21 16:32 49.16940 -2.85705 9138 ft 167 kts 162°
2026-04-21 16:32 49.15771 -2.85302 9128 ft 168 kts 162°
2026-04-21 16:32 49.14663 -2.84922 9132 ft 168 kts 162°
2026-04-21 16:33 49.13502 -2.84522 9131 ft 168 kts 162°
2026-04-21 16:33 49.12360 -2.84131 9126 ft 168 kts 162°
2026-04-21 16:33 49.11219 -2.83737 9126 ft 168 kts 162°
2026-04-21 16:33 49.10074 -2.83343 9119 ft 168 kts 162°
2026-04-21 16:34 49.08930 -2.82951 9109 ft 168 kts 162°
2026-04-21 16:34 49.07787 -2.82559 9107 ft 168 kts 162°
2026-04-21 16:34 49.06644 -2.82167 9103 ft 168 kts 162°
2026-04-21 16:34 49.05518 -2.81780 9106 ft 168 kts 162°
2026-04-21 16:35 49.04380 -2.81390 9081 ft 169 kts 162°
2026-04-21 16:35 49.03276 -2.81022 8837 ft 154 kts 162°
2026-04-21 16:35 49.02267 -2.80676 8586 ft 144 kts 160°
2026-04-21 16:35 49.01323 -2.80350 8329 ft 137 kts 160°
2026-04-21 16:36 49.00399 -2.80032 8067 ft 133 kts 159°
2026-04-21 16:36 48.99504 -2.79723 7807 ft 130 kts 159°
2026-04-21 16:36 48.98629 -2.79425 7547 ft 127 kts 158°
2026-04-21 16:36 48.97770 -2.79130 7290 ft 125 kts 158°
2026-04-21 16:37 48.96922 -2.78840 7034 ft 124 kts 158°
2026-04-21 16:37 48.96086 -2.78555 6779 ft 123 kts 158°
2026-04-21 16:37 48.95271 -2.78274 6525 ft 122 kts 157°
2026-04-21 16:37 48.94430 -2.77988 6266 ft 121 kts 156°
2026-04-21 16:38 48.93608 -2.77708 6007 ft 120 kts 156°
2026-04-21 16:38 48.92805 -2.77433 5760 ft 120 kts 156°
2026-04-21 16:38 48.91994 -2.77158 5506 ft 119 kts 155°
2026-04-21 16:38 48.91203 -2.76889 5268 ft 117 kts 155°
2026-04-21 16:39 48.90436 -2.76632 5134 ft 107 kts 154°
2026-04-21 16:39 48.89703 -2.76373 5003 ft 114 kts 154°
2026-04-21 16:39 48.88895 -2.76096 4877 ft 123 kts 155°
2026-04-21 16:39 48.88041 -2.75806 4760 ft 127 kts 156°
2026-04-21 16:40 48.87163 -2.75509 4638 ft 130 kts 156°
2026-04-21 16:40 48.86275 -2.75210 4518 ft 132 kts 156°
2026-04-21 16:40 48.85375 -2.74904 4399 ft 133 kts 156°
2026-04-21 16:40 48.84474 -2.74598 4279 ft 133 kts 156°
2026-04-21 16:41 48.83570 -2.74293 4159 ft 133 kts 156°
2026-04-21 16:41 48.82668 -2.73985 4039 ft 133 kts 156°
2026-04-21 16:41 48.81764 -2.73678 3918 ft 133 kts 156°
2026-04-21 16:41 48.80874 -2.73378 3801 ft 133 kts 156°
2026-04-21 16:42 48.79971 -2.73069 3679 ft 133 kts 155°
2026-04-21 16:42 48.79065 -2.72763 3558 ft 133 kts 155°
2026-04-21 16:42 48.78159 -2.72456 3434 ft 134 kts 155°
2026-04-21 16:42 48.77187 -2.72112 3316 ft 152 kts 157°
2026-04-21 16:43 48.76122 -2.71754 3202 ft 161 kts 158°
2026-04-21 16:43 48.75011 -2.71384 3092 ft 165 kts 158°
2026-04-21 16:43 48.73895 -2.71010 2977 ft 167 kts 158°